Mount Vernon, IL

9:18 PM CDT on July 20, 2017 (GMT -0500)
Mount Vernon

Weather History for KMVN - February, 2013

Change the Weather History Date:

Monday, February 25, 2013

  Actual Average Record
Temperature  
Mean Temperature 37 °F -  
Max Temperature 46 °F 45 °F 64 °F (1998)
Min Temperature 28 °F 29 °F 6 °F (2003)
Degree Days  
Heating Degree Days 28    
Moisture  
Dew Point 28 °F    
Average Humidity 67    
Maximum Humidity 86    
Minimum Humidity 53    
Precipitation  
Precipitation 0.01 in - - ()
Sea Level Pressure  
Sea Level Pressure 29.93 in    
Wind  
Wind Speed 10 mph (ENE)    
Max Wind Speed 23 mph    
Max Gust Speed 31 mph    
Visibility 10 miles    
Events      
Averages and records for this station are not official NWS values.
T = Trace of Precipitation, MM = Missing Value Source: NWS Daily Summary

Daily Weather History Graph

Daily Weather History Graph

Search for Another Location

Airport or City:

Trip Planner

Search our weather history database for the weather conditions in past years. The results will help you decide how hot, cold, wet, or windy it might be!

Date:

Astronomy

Feb. 25, 2013 Rise Set
Actual Time 6:32 AM CST 5:44 PM CST
Civil Twilight 6:05 AM CST 6:11 PM CST
Nautical Twilight 5:35 AM CST 6:42 PM CST
Astronomical Twilight 5:04 AM CST 7:12 PM CST
Moon 5:57 PM CST (2/25) 6:03 AM CST (2/25)
Length of Visible Light 12h 05m
Length of Day
11h 12m
Full, 100% of the Moon is Illuminated
Feb 25
Full
Feb 25
Full
Mar 4
Last Quarter
Mar 11
New
Mar 19
First Quarter

Hourly Weather History & Observations

Time (CST) Temp. Windchill Dew Point Humidity Pressure Visibility Wind Dir Wind Speed Gust Speed Precip Events Conditions
12:15 AM 32.0 °F 26.4 °F 24.8 °F 75% 30.08 in 10.0 mi ENE 5.8 mph - N/A   Clear
12:35 AM 30.2 °F 24.3 °F 24.8 °F 80% 30.08 in 10.0 mi NE 5.8 mph - N/A   Clear
12:55 AM 30.2 °F 24.3 °F 24.8 °F 80% 30.08 in 10.0 mi NE 5.8 mph - N/A   Clear
1:35 AM 30.2 °F 25.4 °F 24.8 °F 80% 30.09 in 10.0 mi NE 4.6 mph - N/A   Clear
1:55 AM 30.2 °F 24.3 °F 24.8 °F 80% 30.09 in 10.0 mi NE 5.8 mph - N/A   Clear
2:15 AM 32.0 °F 27.5 °F 24.8 °F 75% 30.10 in 10.0 mi NE 4.6 mph - N/A   Clear
2:35 AM 32.0 °F 25.6 °F 26.6 °F 80% 30.09 in 10.0 mi NE 6.9 mph - N/A   Clear
2:55 AM 30.2 °F 24.3 °F 24.8 °F 80% 30.09 in 10.0 mi NE 5.8 mph - N/A   Clear
3:15 AM 30.2 °F 23.4 °F 26.6 °F 86% 30.09 in 10.0 mi NE 6.9 mph - N/A   Clear
3:35 AM 30.2 °F 23.4 °F 24.8 °F 80% 30.08 in 10.0 mi NE 6.9 mph - N/A   Clear
4:15 AM 30.2 °F 24.3 °F 24.8 °F 80% 30.09 in 10.0 mi NE 5.8 mph - N/A   Clear
4:35 AM 30.2 °F 23.4 °F 24.8 °F 80% 30.09 in 10.0 mi NE 6.9 mph - N/A   Clear
4:55 AM 30.2 °F 23.4 °F 24.8 °F 80% 30.09 in 10.0 mi ENE 6.9 mph - N/A   Clear
5:15 AM 30.2 °F 23.4 °F 24.8 °F 80% 30.09 in 10.0 mi ENE 6.9 mph - N/A   Clear
5:35 AM 28.4 °F 22.2 °F 24.8 °F 86% 30.08 in 10.0 mi NE 5.8 mph - N/A   Clear
5:55 AM 30.2 °F 22.6 °F 24.8 °F 80% 30.06 in 10.0 mi NE 8.1 mph - N/A   Clear
6:15 AM 30.2 °F 21.3 °F 24.8 °F 80% 30.05 in 10.0 mi NE 10.4 mph - N/A   Clear
6:35 AM 30.2 °F 22.6 °F 24.8 °F 80% 30.05 in 9.0 mi ENE 8.1 mph - N/A   Clear
6:55 AM 30.2 °F 21.9 °F 24.8 °F 80% 30.04 in 9.0 mi ENE 9.2 mph - N/A   Clear
7:35 AM 32.0 °F 24.2 °F 26.6 °F 80% 30.04 in 9.0 mi ENE 9.2 mph - N/A   Clear
7:55 AM 33.8 °F 25.8 °F 26.6 °F 75% 30.05 in 10.0 mi ENE 10.4 mph - N/A   Clear
8:15 AM 33.8 °F 27.0 °F 26.6 °F 75% 30.06 in 10.0 mi ENE 8.1 mph - N/A   Clear
8:35 AM 35.6 °F 28.6 °F 26.6 °F 70% 30.06 in 10.0 mi East 9.2 mph - N/A   Clear
8:55 AM 35.6 °F 28.6 °F 28.4 °F 75% 30.07 in 10.0 mi East 9.2 mph - N/A   Clear
9:15 AM 37.4 °F 29.3 °F 26.6 °F 65% 30.07 in 10.0 mi East 12.7 mph 16.1 mph N/A   Clear
9:35 AM 39.2 °F 32.0 °F 28.4 °F 65% 30.06 in 10.0 mi East 11.5 mph 17.3 mph N/A   Clear
9:55 AM 39.2 °F 31.6 °F 28.4 °F 65% 30.06 in 10.0 mi East 12.7 mph 16.1 mph N/A   Clear
10:15 AM 42.8 °F 35.1 °F 28.4 °F 57% 30.06 in 10.0 mi East 16.1 mph - N/A   Clear
10:35 AM 42.8 °F 34.8 °F 30.2 °F 61% 30.04 in 10.0 mi East 17.3 mph 21.9 mph N/A   Clear
10:55 AM 42.8 °F 37.5 °F 30.2 °F 61% 30.04 in 10.0 mi East 9.2 mph 21.9 mph N/A   Clear
11:15 AM 44.6 °F 38.4 °F 30.2 °F 57% 30.03 in 10.0 mi ENE 12.7 mph 19.6 mph N/A   Clear
11:55 AM 46.4 °F 41.5 °F 33.8 °F 62% 30.02 in 10.0 mi East 10.4 mph - N/A   Clear
12:15 PM 46.4 °F 41.5 °F 30.2 °F 53% 30.00 in 10.0 mi East 10.4 mph - N/A   Clear
12:35 PM 46.4 °F 40.4 °F 33.8 °F 62% 29.98 in 10.0 mi ENE 13.8 mph 18.4 mph N/A   Clear
12:55 PM 46.4 °F 40.1 °F 32.0 °F 57% 29.96 in 10.0 mi ENE 15.0 mph - N/A   Clear
1:16 PM 46.4 °F 41.1 °F 30.2 °F 53% 29.94 in 10.0 mi ENE 11.5 mph 23.0 mph N/A   Clear
1:55 PM 46.4 °F 40.1 °F 32.0 °F 57% 29.92 in 10.0 mi ENE 15.0 mph 19.6 mph N/A   Clear
2:35 PM 46.4 °F 40.1 °F 30.2 °F 53% 29.90 in 10.0 mi ENE 15.0 mph 23.0 mph N/A   Clear
2:55 PM 46.4 °F 40.4 °F 30.2 °F 53% 29.89 in 10.0 mi ENE 13.8 mph 25.3 mph N/A   Clear
3:15 PM 46.4 °F 39.0 °F 30.2 °F 53% 29.88 in 10.0 mi ENE 19.6 mph 26.5 mph N/A   Clear
3:35 PM 46.4 °F 40.1 °F 32.0 °F 57% 29.86 in 10.0 mi ENE 15.0 mph 20.7 mph N/A   Clear
3:55 PM 46.4 °F 39.8 °F 32.0 °F 57% 29.87 in 10.0 mi East 16.1 mph 21.9 mph N/A   Clear
4:15 PM 46.4 °F 40.4 °F 30.2 °F 53% 29.86 in 10.0 mi ENE 13.8 mph 24.2 mph N/A   Clear
4:35 PM 44.6 °F 36.4 °F 32.0 °F 61% 29.82 in 10.0 mi ENE 20.7 mph 27.6 mph N/A   Clear
4:55 PM 44.6 °F 37.2 °F 30.2 °F 57% 29.83 in 10.0 mi ENE 17.3 mph 25.3 mph N/A   Scattered Clouds
5:15 PM 44.6 °F 36.9 °F 30.2 °F 57% 29.80 in 10.0 mi NE 18.4 mph - N/A   Scattered Clouds
5:35 PM 42.8 °F 34.5 °F 30.2 °F 61% 29.79 in 10.0 mi ENE 18.4 mph 24.2 mph N/A   Clear
5:55 PM 42.8 °F 35.1 °F 30.2 °F 61% 29.80 in 10.0 mi ENE 16.1 mph 25.3 mph N/A   Mostly Cloudy
6:15 PM 42.8 °F 34.8 °F 30.2 °F 61% 29.78 in 10.0 mi ENE 17.3 mph 24.2 mph N/A   Overcast
6:35 PM 44.6 °F 37.2 °F 30.2 °F 57% 29.80 in 10.0 mi ENE 17.3 mph 25.3 mph N/A   Overcast
6:55 PM 44.6 °F 36.9 °F 28.4 °F 53% 29.80 in 10.0 mi ENE 18.4 mph 26.5 mph N/A   Overcast
7:35 PM 42.8 °F 35.4 °F 28.4 °F 57% 29.79 in 10.0 mi ENE 15.0 mph 25.3 mph N/A   Overcast
8:15 PM 41.0 °F 32.2 °F 30.2 °F 65% 29.75 in 10.0 mi NE 18.4 mph 25.3 mph 0.01 in   Overcast
8:35 PM 41.0 °F 32.5 °F 30.2 °F 65% 29.74 in 10.0 mi ENE 17.3 mph 28.8 mph 0.01 in   Overcast
8:55 PM 41.0 °F 31.1 °F 30.2 °F 65% 29.71 in 10.0 mi ENE 23.0 mph 27.6 mph 0.01 in   Overcast
9:15 PM 41.0 °F 31.6 °F 28.4 °F 61% 29.70 in 10.0 mi ENE 20.7 mph 31.1 mph N/A   Overcast
9:35 PM 41.0 °F 31.4 °F 30.2 °F 65% 29.68 in 10.0 mi ENE 21.9 mph 28.8 mph N/A   Mostly Cloudy
9:55 PM 41.0 °F 31.6 °F 30.2 °F 65% 29.68 in 10.0 mi ENE 20.7 mph 28.8 mph N/A   Mostly Cloudy
10:15 PM 41.0 °F 31.9 °F 30.2 °F 65% 29.69 in 10.0 mi ENE 19.6 mph 28.8 mph N/A   Mostly Cloudy
10:35 PM 41.0 °F 32.5 °F 30.2 °F 65% 29.67 in 10.0 mi ENE 17.3 mph 26.5 mph N/A   Overcast
10:56 PM 41.0 °F 33.5 °F 30.2 °F 65% 29.65 in 10.0 mi ENE 13.8 mph 24.2 mph N/A   Overcast
11:15 PM 41.0 °F 33.1 °F 30.2 °F 65% 29.64 in 10.0 mi ENE 15.0 mph 19.6 mph N/A   Overcast
11:35 PM 41.0 °F 32.2 °F 28.4 °F 61% 29.62 in 10.0 mi ENE 18.4 mph 26.5 mph N/A   Overcast
11:55 PM 41.0 °F 32.5 °F 28.4 °F 61% 29.60 in 10.0 mi ENE 17.3 mph 25.3 mph N/A   Overcast